Location: Dunedin
(45.8670°S, 170.5000°E)
Time: 23:51:22
(UTC+13:00)

Cosmos 1745 Rocket - Pass Details

Date: 24 January 2019
Orbit: 953 x 998 km, 83.0° (Epoch: 17 October)

Event Time Altitude Azimuth Distance (km) Brightness Sun altitude
Exits shadow 23:04:17 13° 3° (N) 2,543 5.7 -14.9°
Maximum altitude 23:10:00 72° 85° (E) 1,054 4.0 -15.5°
Drops below altitude 10° 23:16:23 10° 168° (SSE) 2,781 6.9 -16.2°
Sets 23:18:55 0° 169° (S) 3,730 7.7 -16.5°
